Regional Weather Roundup
Issued by NWS

Home | Current Version | Previous Version | Graphics & Text | Print | Product List | Glossary Off
Versions: 1 2 3 4 5 6 7 8 9 10 11 12 13 14 15 16 17 18 19 20 21 22 23 24 25 26 27 28 29 30 31 32 33 34 35 36 37 38 39 40 41 42 43 44 45 46 47 48 49 50

000
ASUS43 KMKX 300021
RWRWI

WISCONSIN REGIONAL WEATHER ROUNDUP
NATIONAL WEATHER SERVICE MILWAUKEE/SULLIVAN WI
700 PM CDT MON SEP 29 2014

NOTE: "FAIR" INDICATES FEW OR NO CLOUDS BELOW 12,000 FEET WITH NO
SIGNIFICANT WEATHER AND/OR OBSTRUCTIONS TO VISIBILITY.

WIZ001-002-006>008-014>016-023>028-300100-
NORTHWEST WISCONSIN

CITY           SKY/WX    TMP DP  RH WIND       PRES   REMARKS
SUPERIOR ARPT  CLOUDY    45  40  80 E9        30.21S
6HR MIN TEMP:  45; 6HR MAX TEMP:  49;

ASHLAND        CLOUDY    43  41  93 NE9       30.21S
6HR MIN TEMP:  43; 6HR MAX TEMP:  49; 6HR PCP:  0.01;

HAYWARD        CLOUDY    44  39  82 NE9       30.17S
6HR MIN TEMP:  44; 6HR MAX TEMP:  51;

SIREN          CLOUDY    47  40  75 NE12      30.16S
6HR MIN TEMP:  47; 6HR MAX TEMP:  54;

CUMBERLAND     PTCLDY    46  39  76 N7        30.14R
RICE LAKE      CLEAR     47  40  75 N10       30.15R
6HR MIN TEMP:  48; 6HR MAX TEMP:  56;

CHETEK         CLEAR     50  42  73 N7        30.12S
6HR MIN TEMP:  50; 6HR MAX TEMP:  58;

LADYSMITH      CLEAR     46  39  77 N9        30.15S
6HR MIN TEMP:  46; 6HR MAX TEMP:  56;

EAU CLAIRE     CLEAR     53  42  66 N7        30.09R
6HR MIN TEMP:  53; 6HR MAX TEMP:  61;

MENOMONIE      CLEAR     55  43  64 NE6       30.10S
6HR MIN TEMP:  55; 6HR MAX TEMP:  61;

NEW RICHMOND   CLEAR     52  42  70 NE7       30.12S
6HR MIN TEMP:  52; 6HR MAX TEMP:  58;

OSCEOLA        CLEAR     50  44  77 N10       30.16R
6HR MIN TEMP:  50; 6HR MAX TEMP:  58;

$$

WIZ003>005-009-010-017-018-300100-
NORTH CENTRAL WISCONSIN

CITY           SKY/WX    TMP DP  RH WIND       PRES   REMARKS
MANITOWISH WTR CLOUDY    38  38 100 N10G16    30.15S WCI  31
6HR MIN TEMP:  38; 6HR MAX TEMP:  46;

ARBOR VITAE    CLOUDY    42  39  90 N9        30.14S
6HR MIN TEMP:  41; 6HR MAX TEMP:  49;

WOODRUFF       CLOUDY    42  39  90 N9        30.14S
6HR MIN TEMP:  41; 6HR MAX TEMP:  49;

RHINELANDER    CLOUDY    40  36  86 N10G16    30.14R WCI  33
6HR MIN TEMP:  40; 6HR MAX TEMP:  50;

EAGLE RIVER    DRIZZLE   38  38  98 N8        30.14R WCI  33
6HR MIN TEMP:  38; 6HR MAX TEMP:  48;

LAND O LAKES   CLOUDY    38  37  95 N10       30.15S WCI  31
6HR MIN TEMP:  38; 6HR MAX TEMP:  46;

PHILLIPS       CLOUDY    41  37  84 NE10      30.14S
6HR MIN TEMP:  41; 6HR MAX TEMP:  50;

TOMAHAWK       CLOUDY    42  37  83 N5        30.14R
6HR MIN TEMP:  42; 6HR MAX TEMP:  52;

MEDFORD        CLEAR     45  39  78 NE9G16    30.10S
6HR MIN TEMP:  45; 6HR MAX TEMP:  55;

MERRILL        CLOUDY    45  39  79 N13       30.11S
6HR MIN TEMP:  45; 6HR MAX TEMP:  53;

$$

WIZ029-030-035-036-043>047-300100-
CENTRAL WISCONSIN

CITY           SKY/WX    TMP DP  RH WIND       PRES   REMARKS
WAUSAU         MOCLDY    49  41  74 NE6       30.09R
6HR MIN TEMP:  49; 6HR MAX TEMP:  54;

MOSINEE        CLOUDY    48  45  87 N10       30.10R
MARSHFIELD     CLEAR     52  43  71 NE9       30.08R
6HR MIN TEMP:  51; 6HR MAX TEMP:  58;

STEVENS POINT  PTCLDY    49  42  78 N7        30.09S
6HR MIN TEMP:  48; 6HR MAX TEMP:  53; 6HR PCP:  0.09;

WAUPACA        CLOUDY    54  48  80 N6        30.08S
6HR MIN TEMP:  53; 6HR MAX TEMP:  57; 6HR PCP:  0.04;

WAUTOMA        NOT AVBL
WISC RAPIDS    CLOUDY    54  44  69 N10       30.09S
6HR MIN TEMP:  53; 6HR MAX TEMP:  56; 6HR PCP:  0.01;

CAMP DOUGLAS   CLOUDY    53  53 100 NE5       30.07S
6HR MIN TEMP:  53; 6HR MAX TEMP:  60; 6HR PCP:  0.08;

$$

WIZ011>013-019>022-031-037>040-048>050-300100-
NORTHEAST WISCONSIN

CITY           SKY/WX    TMP DP  RH WIND       PRES   REMARKS
ANTIGO         CLOUDY    44  39  83 N16       30.10S
6HR MIN TEMP:  44; 6HR MAX TEMP:  51;

SHAWANO        CLOUDY    51  43  74 N7G17     30.10R
6HR MIN TEMP:  51; 6HR MAX TEMP:  54; 6HR PCP:  0.04;

OCONTO         CLOUDY    49  42  78 N14       30.09R
6HR MIN TEMP:  47; 6HR MAX TEMP:  51; 6HR PCP:  0.11;

STURGEON BAY   NOT AVBL
GREEN BAY      CLOUDY    50  47  89 N8        30.08R
6HR MIN TEMP:  49; 6HR MAX TEMP:  52; 6HR PCP:  0.12;

MANITOWOC      NOT AVBL
APPLETON       CLOUDY    52  46  82 N12       30.07S
CLINTONVILLE   CLOUDY    50  43  76 NE7G16    30.09R
OSHKOSH        CLOUDY    52  49  89 N15       30.06S
6HR MIN TEMP:  51; 6HR MAX TEMP:  62; 6HR PCP:  0.05;

$$

WIZ032>034-041-042-053>061-300100-
SOUTHWEST WISCONSIN

CITY           SKY/WX    TMP DP  RH WIND       PRES   REMARKS
LA CROSSE      CLOUDY    58  50  75 N10       30.06S
6HR MIN TEMP:  57; 6HR MAX TEMP:  65; 6HR PCP:  0.01;

SPARTA         CLOUDY    55  48  78 NE6       30.07F
6HR MIN TEMP:  53; 6HR MAX TEMP:  58; 6HR PCP:  0.04;

VIROQUA        CLOUDY    53  51  90 N7        30.06S
6HR MIN TEMP:  53; 6HR MAX TEMP:  70;

BOSCOBEL       CLOUDY    59  52  77 NE9G17    30.03R
6HR MIN TEMP:  59; 6HR MAX TEMP:  84; 6HR PCP: TRACE;

PRAIRIE DU CHI PTCLDY    61  51  71 N9        30.02R
6HR MIN TEMP:  61; 6HR MAX TEMP:  83;

PLATTEVILLE    CLEAR     63  56  80 N15G21    30.00R
6HR MIN TEMP:  63; 6HR MAX TEMP:  83;

$$

WIZ056-057-062-063-064-067-068-300100-
SOUTH CENTRAL WISCONSIN

CITY           SKY/WX    TMP DP  RH WIND       PRES   REMARKS
REEDSBURG      CLOUDY    53  51  94 NE8       30.06R
6HR MIN TEMP:  53; 6HR MAX TEMP:  74; 6HR PCP:  0.08;

BARABOO/DELLS  CLOUDY    52  49  92 NE8G16    30.05S
6HR MIN TEMP:  52; 6HR MAX TEMP:  74; 6HR PCP:  0.08;

LONE ROCK      CLOUDY    60  50  69 NE12      30.04R
6HR MIN TEMP:  60; 6HR MAX TEMP:  86;

MINERAL POINT  HVY RAIN  59  54  82 NE13G20   30.01R
MADISON        CLOUDY    54  52  93 NE10      30.03R
6HR MIN TEMP:  54; 6HR MAX TEMP:  82; 6HR PCP:  0.05;

MIDDLETON      CLOUDY    55  53  93 NE14G20   30.04R
6HR MIN TEMP:  55; 6HR MAX TEMP:  83; 6HR PCP:  0.06;

WATERTOWN      CLOUDY    51  51 100 NE13      30.03S
6HR MIN TEMP:  51; 6HR MAX TEMP:  81; 6HR PCP:  0.02;

MONROE         CLOUDY    61  55  82 N20G25    29.98S
JANESVILLE     MOCLDY    63  55  77 N10G16    29.99R
$$

WIZ051-052-058>065-066-070>072-300100-
SOUTHEAST WISCONSIN

CITY           SKY/WX    TMP DP  RH WIND       PRES   REMARKS
MILWAUKEE      LGT RAIN  52  48  86 N17G26    30.03R
6HR MIN TEMP:  52; 6HR MAX TEMP:  82; 6HR PCP: TRACE;

WAUKESHA       CLOUDY    52  48  87 NE12      30.04R
MILWAUKEE/TIMM CLOUDY    52  46  82 N13       30.04R
RACINE         CLOUDY    54  50  86 N13G23    30.03R
6HR MIN TEMP:  54; 6HR MAX TEMP:  83;

BURLINGTON     CLOUDY    53  49  86 NE12      30.01R
6HR MIN TEMP:  53; 6HR MAX TEMP:  81;

KENOSHA        CLOUDY    55  51  86 NE15G22   30.01R
6HR MIN TEMP:  55; 6HR MAX TEMP:  83;

FOND DU LAC    LGT RAIN  52  49  89 NE10      30.06S FOG
6HR MIN TEMP:  52; 6HR MAX TEMP:  67; 6HR PCP:  0.20;

SHEBOYGAN      CLOUDY    50  47  89 MISG      30.05
WEST BEND      CLOUDY    50  46  87 N10G16    30.03S
JUNEAU         CLOUDY    50  48  93 NE10      30.06R
6HR MIN TEMP:  50; 6HR MAX TEMP:  78; 6HR PCP:  0.13;

$$

LSZ147-162-300100-
LAKE SUPERIOR

STATION/POSITION TIME  TEMP    WIND        PRES    WAVE
                       AIR SEA DIR/SP/G            HT/PER
                 (UTC) (F)     (DEG/KT/KT) (MB)    (FT/S)
W MID LAKE BUOY  2350   45 49   50/ 14/ 17 1023.2R   5/ 7
DEVILS ISLAND    0000   45      70/ 13/ 15 1023.7F
SAXON HARBOR     2340   45      80/  8/ 12 1022.7F
$$

LMZ867-665-643>646-300100-
LAKE MICHIGAN

STATION/POSITION TIME  TEMP    WIND        PRES    WAVE
                       AIR SEA DIR/SP/G            HT/PER
                 (UTC) (F)     (DEG/KT/KT) (MB)    (FT/S)
CHAMBERS ISLAND  2300   50     350/ 21/ 24 1018.3S
S GREEN BAY BUOY 0000   52                 1019.4R
N MID LAKE BUOY  2350   48 59  340/ 23/ 27 1017.1R   5/ 5



USA.gov is the U.S. government's official web portal to all federal, state and local government web resources and services.